Nueva Ocotepeque, Honduras

10:01 PM CST on March 28, 2017 (GMT -0600)
Coronel Enrique Soto Cano Air Base

Weather History for MHSC - April, 2014

Change the Weather History Date:

Friday, April 25, 2014

  Actual Average Record
Temperature  
Mean Temperature 80 °F -  
Max Temperature 91 °F - - ()
Min Temperature 68 °F - - ()
Cooling Degree Days 14    
Growing Degree Days 30 (Base 50)    
Moisture  
Dew Point 65 °F    
Average Humidity 59    
Maximum Humidity 95    
Minimum Humidity 26    
Precipitation  
Precipitation 0.08 in - - ()
Sea Level Pressure  
Sea Level Pressure 29.82 in    
Wind  
Wind Speed 5 mph ()    
Max Wind Speed 22 mph    
Max Gust Speed 28 mph    
Visibility 6.2 miles    
Events Thunderstorm    
T = Trace of Precipitation, MM = Missing Value Source: Averaged Metar Reports

Daily Weather History Graph

Daily Weather History Graph

Search for Another Location

Airport or City:

Trip Planner

Search our weather history database for the weather conditions in past years. The results will help you decide how hot, cold, wet, or windy it might be!

Date:

Astronomy

Apr. 25, 2014 Rise Set
Actual Time 5:37 AM CST 6:12 PM CST
Civil Twilight 5:15 AM CST 6:34 PM CST
Nautical Twilight 4:49 AM CST 7:00 PM CST
Astronomical Twilight 4:23 AM CST 7:26 PM CST
Moon 2:46 AM CST (4/25) 3:08 PM CST (4/25)
Length of Visible Light 13h 19m
Length of Day
12h 34m
Waning Crescent, 15% of the Moon is Illuminated
Apr 25
Waning Crescent
Apr 29
New
May 6
First Quarter
May 14
Full
May 21
Last Quarter

Hourly Weather History & Observations

Time (CST) Temp. Heat Index Dew Point Humidity Pressure Visibility Wind Dir Wind Speed Gust Speed Precip Events Conditions
12:58 AM 73.8 °F - 66.7 °F 79% 29.82 in 6.2 mi SW 2.3 mph - N/A   Clear
1:58 AM 74.1 °F - 66.4 °F 77% 29.80 in 6.2 mi East 3.5 mph - N/A   Clear
2:58 AM 72.9 °F - 65.8 °F 79% 29.79 in 6.2 mi Calm Calm - N/A   Clear
3:58 AM 72.7 °F - 66.0 °F 80% 29.81 in 6.2 mi NE 1.2 mph - N/A   Clear
4:58 AM 70.9 °F - 65.5 °F 83% 29.84 in 6.2 mi East 2.3 mph - N/A   Clear
5:58 AM 70.5 °F - 64.4 °F 81% 29.86 in 6.2 mi East 3.5 mph - N/A   Clear
6:00 AM 68 °F - 67 °F 95% 29.89 in 6 mi Calm Calm - -   Smoke
6:58 AM 74.3 °F - 65.8 °F 75% 29.88 in 6.2 mi SW 2.3 mph - N/A   Partly Cloudy
7:58 AM 77.0 °F - 63.7 °F 63% 29.90 in 6.2 mi South 3.5 mph - N/A   Scattered Clouds
8:58 AM 81.5 °F 83.7 °F 66.4 °F 60% 29.88 in 6.2 mi Variable 3.5 mph - N/A   Partly Cloudy
9:00 AM - - 58 °F %  in 6 mi Calm Calm - -  
9:58 AM 86.7 °F 87.8 °F 63.9 °F 46% 30.00 in 6.2 mi Variable 3.5 mph - N/A   Partly Cloudy
10:58 AM 89.4 °F 89.8 °F 62.2 °F 40% 29.83 in 6.2 mi Variable 5.8 mph - N/A   Scattered Clouds
11:58 AM 93.2 °F 92.9 °F 60.4 °F 33% 29.80 in 6.2 mi NW 9.2 mph - N/A   Mostly Cloudy
12:00 PM 87 °F - 67 °F 41% 29.86 in 6 mi South 2.3 mph - -   Smoke
12:58 PM 94.8 °F 94.9 °F 60.3 °F 32% 29.77 in 6.2 mi NW 12.7 mph - N/A   Scattered Clouds
1:58 PM 95.9 °F 94.9 °F 57.9 °F 28% 29.72 in 6.2 mi NW 10.4 mph 17.3 mph N/A   Scattered Clouds
2:24 PM 96.8 °F 95.8 °F 57.2 °F 27% 29.86 in 6.2 mi NNW 12.7 mph 18.4 mph N/A   Partly Cloudy
2:58 PM 97.0 °F 95.7 °F 56.3 °F 26% 29.70 in 6.2 mi NW 17.3 mph 27.6 mph N/A   Partly Cloudy
3:00 PM 89 °F - 67 °F 39% 29.77 in 6 mi South 4.6 mph - -   Smoke
3:58 PM 95.9 °F 94.9 °F 57.7 °F 28% 29.68 in 6.2 mi NNW 18.4 mph 23.0 mph N/A   Clear
4:58 PM 91.4 °F 93.2 °F 64.8 °F 41% 29.70 in 6.2 mi North 21.9 mph 26.5 mph N/A   Partly Cloudy
5:58 PM 86.2 °F 88.4 °F 66.4 °F 51% 29.76 in 6.2 mi NNW 18.4 mph - N/A   Clear
6:00 PM 79 °F - 72 °F 75% 29.77 in 6 mi Calm Calm - - Thunderstorm Thunderstorm
6:58 PM 83.5 °F 87.2 °F 69.4 °F 62% 29.79 in 6.2 mi NNW 18.4 mph - N/A   Clear
7:58 PM 81.7 °F 85.8 °F 71.2 °F 70% 29.82 in 6.2 mi NW 15.0 mph 21.9 mph N/A   Scattered Clouds
8:58 PM 79.9 °F - 70.3 °F 73% 29.83 in 6.2 mi North 10.4 mph - N/A   Partly Cloudy
9:58 PM 80.1 °F 83.6 °F 71.2 °F 74% 29.85 in 6.2 mi North 12.7 mph - N/A   Mostly Cloudy
10:58 PM 79.2 °F - 71.1 °F 76% 29.84 in 6.2 mi North 12.7 mph - N/A   Scattered Clouds
11:58 PM 78.6 °F - 71.1 °F 78% 29.82 in 6.2 mi North 12.7 mph - N/A   Mostly Cloudy